<?xml version="1.0" encoding="UTF-8" standalone="no" ?>
<gpx xmlns="http://www.topografix.com/GPX/1/1" xmlns:xsi="http://www.w3.org/2001/XMLSchema-instance" xsi:schemaLocation="http://www.topografix.com/GPX/1/1 http://www.topografix.com/GPX/1/1/gpx.xsd" version="1.1" creator="VisuGPX - https://www.visugpx.com">
  <metadata>
    <name>64 - VTT - circuit n° 11 noir</name>
    <desc><![CDATA[La totalité du tracé du circuit]]></desc>
  </metadata>
  <trk>
    <name><![CDATA[ACTIVE LOG 001]]></name>
    <trkseg>
      <trkpt lat="43.31581" lon="-0.58542">
        <ele>197.688232</ele>
        <time>2012-11-16T10:40:46Z</time>
      </trkpt>
      <trkpt lat="43.31581" lon="-0.58542">
        <ele>197.688232</ele>
        <time>2012-11-16T10:40:47Z</time>
      </trkpt>
      <trkpt lat="43.31581" lon="-0.58542">
        <ele>197.688232</ele>
        <time>2012-11-16T10:40:48Z</time>
      </trkpt>
      <trkpt lat="43.31581" lon="-0.58542">
        <ele>196.246338</ele>
        <time>2012-11-16T10:41:18Z</time>
      </trkpt>
      <trkpt lat="43.31581" lon="-0.58543">
        <ele>197.20752</ele>
        <time>2012-11-16T10:41:29Z</time>
      </trkpt>
      <trkpt lat="43.31588" lon="-0.58539">
        <ele>196.246338</ele>
        <time>2012-11-16T10:41:33Z</time>
      </trkpt>
      <trkpt lat="43.31619" lon="-0.5853">
        <ele>192.401123</ele>
        <time>2012-11-16T10:41:38Z</time>
      </trkpt>
      <trkpt lat="43.31635" lon="-0.58527">
        <ele>189.516968</ele>
        <time>2012-11-16T10:41:40Z</time>
      </trkpt>
      <trkpt lat="43.31663" lon="-0.58523">
        <ele>184.710571</ele>
        <time>2012-11-16T10:41:43Z</time>
      </trkpt>
      <trkpt lat="43.31683" lon="-0.58521">
        <ele>180.865234</ele>
        <time>2012-11-16T10:41:45Z</time>
      </trkpt>
      <trkpt lat="43.31702" lon="-0.58515">
        <ele>177.981201</ele>
        <time>2012-11-16T10:41:47Z</time>
      </trkpt>
      <trkpt lat="43.3173" lon="-0.58495">
        <ele>173.655273</ele>
        <time>2012-11-16T10:41:50Z</time>
      </trkpt>
      <trkpt lat="43.31738" lon="-0.58485">
        <ele>172.69397</ele>
        <time>2012-11-16T10:41:51Z</time>
      </trkpt>
      <trkpt lat="43.31765" lon="-0.58457">
        <ele>170.290649</ele>
        <time>2012-11-16T10:41:54Z</time>
      </trkpt>
      <trkpt lat="43.31813" lon="-0.58384">
        <ele>169.329468</ele>
        <time>2012-11-16T10:42:02Z</time>
      </trkpt>
      <trkpt lat="43.31833" lon="-0.58349">
        <ele>172.69397</ele>
        <time>2012-11-16T10:42:10Z</time>
      </trkpt>
      <trkpt lat="43.31845" lon="-0.58328">
        <ele>175.09729</ele>
        <time>2012-11-16T10:42:15Z</time>
      </trkpt>
      <trkpt lat="43.31879" lon="-0.58245">
        <ele>176.539307</ele>
        <time>2012-11-16T10:42:32Z</time>
      </trkpt>
      <trkpt lat="43.31893" lon="-0.58218">
        <ele>175.577881</ele>
        <time>2012-11-16T10:42:39Z</time>
      </trkpt>
      <trkpt lat="43.31894" lon="-0.58214">
        <ele>175.577881</ele>
        <time>2012-11-16T10:42:40Z</time>
      </trkpt>
      <trkpt lat="43.31908" lon="-0.58167">
        <ele>174.135864</ele>
        <time>2012-11-16T10:42:47Z</time>
      </trkpt>
      <trkpt lat="43.31948" lon="-0.58123">
        <ele>170.771362</ele>
        <time>2012-11-16T10:42:53Z</time>
      </trkpt>
      <trkpt lat="43.31961" lon="-0.58109">
        <ele>166.926025</ele>
        <time>2012-11-16T10:42:55Z</time>
      </trkpt>
      <trkpt lat="43.31987" lon="-0.5807">
        <ele>162.600098</ele>
        <time>2012-11-16T10:43:02Z</time>
      </trkpt>
      <trkpt lat="43.32015" lon="-0.58022">
        <ele>158.754761</ele>
        <time>2012-11-16T10:43:08Z</time>
      </trkpt>
      <trkpt lat="43.32024" lon="-0.58005">
        <ele>158.27417</ele>
        <time>2012-11-16T10:43:10Z</time>
      </trkpt>
      <trkpt lat="43.32036" lon="-0.57984">
        <ele>154.428955</ele>
        <time>2012-11-16T10:43:13Z</time>
      </trkpt>
      <trkpt lat="43.32042" lon="-0.57975">
        <ele>152.986938</ele>
        <time>2012-11-16T10:43:15Z</time>
      </trkpt>
      <trkpt lat="43.32059" lon="-0.57948">
        <ele>152.506348</ele>
        <time>2012-11-16T10:43:24Z</time>
      </trkpt>
      <trkpt lat="43.32089" lon="-0.57858">
        <ele>150.583618</ele>
        <time>2012-11-16T10:43:37Z</time>
      </trkpt>
      <trkpt lat="43.32103" lon="-0.57817">
        <ele>147.699707</ele>
        <time>2012-11-16T10:43:42Z</time>
      </trkpt>
      <trkpt lat="43.32104" lon="-0.57792">
        <ele>147.699707</ele>
        <time>2012-11-16T10:43:50Z</time>
      </trkpt>
      <trkpt lat="43.32104" lon="-0.57792">
        <ele>147.699707</ele>
        <time>2012-11-16T10:43:52Z</time>
      </trkpt>
      <trkpt lat="43.32117" lon="-0.57784">
        <ele>148.18042</ele>
        <time>2012-11-16T10:43:59Z</time>
      </trkpt>
      <trkpt lat="43.32223" lon="-0.57842">
        <ele>148.661011</ele>
        <time>2012-11-16T10:44:21Z</time>
      </trkpt>
      <trkpt lat="43.3226" lon="-0.57862">
        <ele>148.18042</ele>
        <time>2012-11-16T10:44:28Z</time>
      </trkpt>
      <trkpt lat="43.32289" lon="-0.57855">
        <ele>147.699707</ele>
        <time>2012-11-16T10:44:35Z</time>
      </trkpt>
      <trkpt lat="43.32308" lon="-0.57835">
        <ele>147.699707</ele>
        <time>2012-11-16T10:44:41Z</time>
      </trkpt>
      <trkpt lat="43.32328" lon="-0.5777">
        <ele>143.85437</ele>
        <time>2012-11-16T10:44:49Z</time>
      </trkpt>
      <trkpt lat="43.32334" lon="-0.57753">
        <ele>142.893066</ele>
        <time>2012-11-16T10:44:51Z</time>
      </trkpt>
      <trkpt lat="43.32365" lon="-0.57741">
        <ele>141.45105</ele>
        <time>2012-11-16T10:44:57Z</time>
      </trkpt>
      <trkpt lat="43.32388" lon="-0.57747">
        <ele>140.970459</ele>
        <time>2012-11-16T10:45:01Z</time>
      </trkpt>
      <trkpt lat="43.32413" lon="-0.57739">
        <ele>140.489868</ele>
        <time>2012-11-16T10:45:05Z</time>
      </trkpt>
      <trkpt lat="43.32482" lon="-0.57726">
        <ele>136.644653</ele>
        <time>2012-11-16T10:45:14Z</time>
      </trkpt>
      <trkpt lat="43.32522" lon="-0.57702">
        <ele>134.721924</ele>
        <time>2012-11-16T10:45:20Z</time>
      </trkpt>
      <trkpt lat="43.32587" lon="-0.57622">
        <ele>131.837891</ele>
        <time>2012-11-16T10:45:33Z</time>
      </trkpt>
      <trkpt lat="43.32608" lon="-0.57585">
        <ele>131.3573</ele>
        <time>2012-11-16T10:45:39Z</time>
      </trkpt>
      <trkpt lat="43.32616" lon="-0.57552">
        <ele>129.434692</ele>
        <time>2012-11-16T10:45:43Z</time>
      </trkpt>
      <trkpt lat="43.32619" lon="-0.57441">
        <ele>127.992554</ele>
        <time>2012-11-16T10:45:56Z</time>
      </trkpt>
      <trkpt lat="43.32639" lon="-0.5735">
        <ele>127.992554</ele>
        <time>2012-11-16T10:46:08Z</time>
      </trkpt>
      <trkpt lat="43.32654" lon="-0.5721">
        <ele>128.473389</ele>
        <time>2012-11-16T10:46:27Z</time>
      </trkpt>
      <trkpt lat="43.32656" lon="-0.57196">
        <ele>129.434692</ele>
        <time>2012-11-16T10:46:29Z</time>
      </trkpt>
      <trkpt lat="43.32661" lon="-0.57175">
        <ele>130.395996</ele>
        <time>2012-11-16T10:46:33Z</time>
      </trkpt>
      <trkpt lat="43.32674" lon="-0.57156">
        <ele>129.434692</ele>
        <time>2012-11-16T10:46:37Z</time>
      </trkpt>
      <trkpt lat="43.32688" lon="-0.57145">
        <ele>129.915283</ele>
        <time>2012-11-16T10:46:40Z</time>
      </trkpt>
      <trkpt lat="43.32725" lon="-0.57073">
        <ele>130.876709</ele>
        <time>2012-11-16T10:46:55Z</time>
      </trkpt>
      <trkpt lat="43.32751" lon="-0.57051">
        <ele>131.3573</ele>
        <time>2012-11-16T10:47:06Z</time>
      </trkpt>
      <trkpt lat="43.32828" lon="-0.57074">
        <ele>130.876709</ele>
        <time>2012-11-16T10:47:21Z</time>
      </trkpt>
      <trkpt lat="43.32933" lon="-0.57134">
        <ele>130.395996</ele>
        <time>2012-11-16T10:47:42Z</time>
      </trkpt>
      <trkpt lat="43.33049" lon="-0.57161">
        <ele>129.915283</ele>
        <time>2012-11-16T10:48:03Z</time>
      </trkpt>
      <trkpt lat="43.33118" lon="-0.57168">
        <ele>130.395996</ele>
        <time>2012-11-16T10:48:16Z</time>
      </trkpt>
      <trkpt lat="43.33157" lon="-0.57202">
        <ele>128.954102</ele>
        <time>2012-11-16T10:48:25Z</time>
      </trkpt>
      <trkpt lat="43.33162" lon="-0.57204">
        <ele>129.434692</ele>
        <time>2012-11-16T10:48:26Z</time>
      </trkpt>
      <trkpt lat="43.33265" lon="-0.57227">
        <ele>129.915283</ele>
        <time>2012-11-16T10:48:46Z</time>
      </trkpt>
      <trkpt lat="43.33349" lon="-0.57261">
        <ele>130.395996</ele>
        <time>2012-11-16T10:49:03Z</time>
      </trkpt>
      <trkpt lat="43.33379" lon="-0.57262">
        <ele>130.876709</ele>
        <time>2012-11-16T10:49:09Z</time>
      </trkpt>
      <trkpt lat="43.33411" lon="-0.57224">
        <ele>132.799316</ele>
        <time>2012-11-16T10:49:20Z</time>
      </trkpt>
      <trkpt lat="43.33422" lon="-0.57123">
        <ele>135.202515</ele>
        <time>2012-11-16T10:49:42Z</time>
      </trkpt>
      <trkpt lat="43.33429" lon="-0.57071">
        <ele>137.605835</ele>
        <time>2012-11-16T10:49:54Z</time>
      </trkpt>
      <trkpt lat="43.33433" lon="-0.57055">
        <ele>138.086548</ele>
        <time>2012-11-16T10:49:58Z</time>
      </trkpt>
      <trkpt lat="43.33443" lon="-0.56991">
        <ele>140.970459</ele>
        <time>2012-11-16T10:50:13Z</time>
      </trkpt>
      <trkpt lat="43.33458" lon="-0.56932">
        <ele>142.412476</ele>
        <time>2012-11-16T10:50:27Z</time>
      </trkpt>
      <trkpt lat="43.33473" lon="-0.56887">
        <ele>143.85437</ele>
        <time>2012-11-16T10:50:38Z</time>
      </trkpt>
      <trkpt lat="43.33488" lon="-0.56832">
        <ele>145.7771</ele>
        <time>2012-11-16T10:50:51Z</time>
      </trkpt>
      <trkpt lat="43.33498" lon="-0.56775">
        <ele>147.699707</ele>
        <time>2012-11-16T10:51:04Z</time>
      </trkpt>
      <trkpt lat="43.33512" lon="-0.56729">
        <ele>150.583618</ele>
        <time>2012-11-16T10:51:18Z</time>
      </trkpt>
      <trkpt lat="43.33525" lon="-0.56686">
        <ele>152.506348</ele>
        <time>2012-11-16T10:51:31Z</time>
      </trkpt>
      <trkpt lat="43.33534" lon="-0.5664">
        <ele>153.948364</ele>
        <time>2012-11-16T10:51:44Z</time>
      </trkpt>
      <trkpt lat="43.33542" lon="-0.56581">
        <ele>156.351563</ele>
        <time>2012-11-16T10:52:00Z</time>
      </trkpt>
      <trkpt lat="43.33539" lon="-0.56541">
        <ele>159.235474</ele>
        <time>2012-11-16T10:52:12Z</time>
      </trkpt>
      <trkpt lat="43.33541" lon="-0.56526">
        <ele>159.235474</ele>
        <time>2012-11-16T10:52:16Z</time>
      </trkpt>
      <trkpt lat="43.33528" lon="-0.56485">
        <ele>160.67749</ele>
        <time>2012-11-16T10:52:28Z</time>
      </trkpt>
      <trkpt lat="43.33518" lon="-0.56435">
        <ele>164.042114</ele>
        <time>2012-11-16T10:52:42Z</time>
      </trkpt>
      <trkpt lat="43.33509" lon="-0.56386">
        <ele>166.445313</ele>
        <time>2012-11-16T10:52:58Z</time>
      </trkpt>
      <trkpt lat="43.33489" lon="-0.5636">
        <ele>168.368042</ele>
        <time>2012-11-16T10:53:09Z</time>
      </trkpt>
      <trkpt lat="43.33469" lon="-0.56333">
        <ele>169.810059</ele>
        <time>2012-11-16T10:53:20Z</time>
      </trkpt>
      <trkpt lat="43.33465" lon="-0.56324">
        <ele>170.290649</ele>
        <time>2012-11-16T10:53:23Z</time>
      </trkpt>
      <trkpt lat="43.33476" lon="-0.56287">
        <ele>170.771362</ele>
        <time>2012-11-16T10:53:35Z</time>
      </trkpt>
      <trkpt lat="43.33502" lon="-0.56287">
        <ele>173.174683</ele>
        <time>2012-11-16T10:53:44Z</time>
      </trkpt>
      <trkpt lat="43.33546" lon="-0.56309">
        <ele>176.058594</ele>
        <time>2012-11-16T10:54:05Z</time>
      </trkpt>
      <trkpt lat="43.33555" lon="-0.56314">
        <ele>177.50061</ele>
        <time>2012-11-16T10:54:09Z</time>
      </trkpt>
      <trkpt lat="43.33585" lon="-0.56335">
        <ele>180.384521</ele>
        <time>2012-11-16T10:54:25Z</time>
      </trkpt>
      <trkpt lat="43.33617" lon="-0.56358">
        <ele>183.749023</ele>
        <time>2012-11-16T10:54:42Z</time>
      </trkpt>
      <trkpt lat="43.33638" lon="-0.56396">
        <ele>186.152466</ele>
        <time>2012-11-16T10:54:58Z</time>
      </trkpt>
      <trkpt lat="43.33653" lon="-0.56447">
        <ele>188.555786</ele>
        <time>2012-11-16T10:55:17Z</time>
      </trkpt>
      <trkpt lat="43.33668" lon="-0.5649">
        <ele>191.920288</ele>
        <time>2012-11-16T10:55:32Z</time>
      </trkpt>
      <trkpt lat="43.33683" lon="-0.56528">
        <ele>194.804321</ele>
        <time>2012-11-16T10:55:46Z</time>
      </trkpt>
      <trkpt lat="43.33704" lon="-0.56553">
        <ele>197.20752</ele>
        <time>2012-11-16T10:56:00Z</time>
      </trkpt>
      <trkpt lat="43.33717" lon="-0.56529">
        <ele>200.091675</ele>
        <time>2012-11-16T10:56:12Z</time>
      </trkpt>
      <trkpt lat="43.33717" lon="-0.5648">
        <ele>202.014282</ele>
        <time>2012-11-16T10:56:29Z</time>
      </trkpt>
      <trkpt lat="43.33719" lon="-0.5643">
        <ele>203.93689</ele>
        <time>2012-11-16T10:56:45Z</time>
      </trkpt>
      <trkpt lat="43.33709" lon="-0.56385">
        <ele>204.898071</ele>
        <time>2012-11-16T10:56:59Z</time>
      </trkpt>
      <trkpt lat="43.33693" lon="-0.56326">
        <ele>207.301392</ele>
        <time>2012-11-16T10:57:18Z</time>
      </trkpt>
      <trkpt lat="43.3368" lon="-0.5628">
        <ele>210.666016</ele>
        <time>2012-11-16T10:57:34Z</time>
      </trkpt>
      <trkpt lat="43.33679" lon="-0.5625">
        <ele>211.146729</ele>
        <time>2012-11-16T10:57:44Z</time>
      </trkpt>
      <trkpt lat="43.33688" lon="-0.5625">
        <ele>212.588623</ele>
        <time>2012-11-16T10:57:48Z</time>
      </trkpt>
      <trkpt lat="43.33713" lon="-0.56271">
        <ele>215.953247</ele>
        <time>2012-11-16T10:58:02Z</time>
      </trkpt>
      <trkpt lat="43.33715" lon="-0.56273">
        <ele>215.953247</ele>
        <time>2012-11-16T10:58:03Z</time>
      </trkpt>
      <trkpt lat="43.33738" lon="-0.56295">
        <ele>218.83728</ele>
        <time>2012-11-16T10:58:18Z</time>
      </trkpt>
      <trkpt lat="43.33754" lon="-0.56315">
        <ele>222.201782</ele>
        <time>2012-11-16T10:58:30Z</time>
      </trkpt>
      <trkpt lat="43.33773" lon="-0.56357">
        <ele>225.085938</ele>
        <time>2012-11-16T10:58:49Z</time>
      </trkpt>
      <trkpt lat="43.33792" lon="-0.56398">
        <ele>227.969727</ele>
        <time>2012-11-16T10:59:08Z</time>
      </trkpt>
      <trkpt lat="43.33801" lon="-0.56411">
        <ele>231.334351</ele>
        <time>2012-11-16T10:59:15Z</time>
      </trkpt>
      <trkpt lat="43.33804" lon="-0.56414">
        <ele>231.334351</ele>
        <time>2012-11-16T10:59:17Z</time>
      </trkpt>
      <trkpt lat="43.33819" lon="-0.56447">
        <ele>234.218384</ele>
        <time>2012-11-16T10:59:35Z</time>
      </trkpt>
      <trkpt lat="43.33824" lon="-0.56495">
        <ele>235.660278</ele>
        <time>2012-11-16T10:59:52Z</time>
      </trkpt>
      <trkpt lat="43.33843" lon="-0.56573">
        <ele>234.218384</ele>
        <time>2012-11-16T11:00:07Z</time>
      </trkpt>
      <trkpt lat="43.33847" lon="-0.56595">
        <ele>234.218384</ele>
        <time>2012-11-16T11:00:10Z</time>
      </trkpt>
      <trkpt lat="43.33866" lon="-0.56674">
        <ele>233.737671</ele>
        <time>2012-11-16T11:00:25Z</time>
      </trkpt>
      <trkpt lat="43.3388" lon="-0.56741">
        <ele>237.102295</ele>
        <time>2012-11-16T11:00:42Z</time>
      </trkpt>
      <trkpt lat="43.33888" lon="-0.56766">
        <ele>239.505493</ele>
        <time>2012-11-16T11:00:51Z</time>
      </trkpt>
      <trkpt lat="43.33909" lon="-0.56786">
        <ele>242.389648</ele>
        <time>2012-11-16T11:01:05Z</time>
      </trkpt>
      <trkpt lat="43.3395" lon="-0.56786">
        <ele>243.35083</ele>
        <time>2012-11-16T11:01:20Z</time>
      </trkpt>
      <trkpt lat="43.33989" lon="-0.5678">
        <ele>243.35083</ele>
        <time>2012-11-16T11:01:32Z</time>
      </trkpt>
      <trkpt lat="43.34042" lon="-0.56764">
        <ele>242.389648</ele>
        <time>2012-11-16T11:01:49Z</time>
      </trkpt>
      <trkpt lat="43.34078" lon="-0.56745">
        <ele>242.870239</ele>
        <time>2012-11-16T11:02:01Z</time>
      </trkpt>
      <trkpt lat="43.34095" lon="-0.5675">
        <ele>242.389648</ele>
        <time>2012-11-16T11:02:05Z</time>
      </trkpt>
      <trkpt lat="43.34158" lon="-0.56774">
        <ele>238.544312</ele>
        <time>2012-11-16T11:02:15Z</time>
      </trkpt>
      <trkpt lat="43.34233" lon="-0.56817">
        <ele>236.140991</ele>
        <time>2012-11-16T11:02:28Z</time>
      </trkpt>
      <trkpt lat="43.34254" lon="-0.56841">
        <ele>235.179688</ele>
        <time>2012-11-16T11:02:35Z</time>
      </trkpt>
      <trkpt lat="43.34278" lon="-0.56881">
        <ele>234.699097</ele>
        <time>2012-11-16T11:02:44Z</time>
      </trkpt>
      <trkpt lat="43.34311" lon="-0.56941">
        <ele>235.179688</ele>
        <time>2012-11-16T11:02:59Z</time>
      </trkpt>
      <trkpt lat="43.34313" lon="-0.56958">
        <ele>235.660278</ele>
        <time>2012-11-16T11:03:10Z</time>
      </trkpt>
      <trkpt lat="43.34311" lon="-0.56963">
        <ele>235.179688</ele>
        <time>2012-11-16T11:03:34Z</time>
      </trkpt>
      <trkpt lat="43.34311" lon="-0.56959">
        <ele>235.660278</ele>
        <time>2012-11-16T11:04:03Z</time>
      </trkpt>
      <trkpt lat="43.3431" lon="-0.56961">
        <ele>236.140991</ele>
        <time>2012-11-16T11:04:41Z</time>
      </trkpt>
      <trkpt lat="43.34312" lon="-0.5696">
        <ele>236.140991</ele>
        <time>2012-11-16T11:05:09Z</time>
      </trkpt>
      <trkpt lat="43.34314" lon="-0.56961">
        <ele>235.660278</ele>
        <time>2012-11-16T11:05:21Z</time>
      </trkpt>
      <trkpt lat="43.34316" lon="-0.5697">
        <ele>235.660278</ele>
        <time>2012-11-16T11:05:24Z</time>
      </trkpt>
      <trkpt lat="43.34323" lon="-0.56994">
        <ele>234.218384</ele>
        <time>2012-11-16T11:05:28Z</time>
      </trkpt>
      <trkpt lat="43.34355" lon="-0.57053">
        <ele>234.699097</ele>
        <time>2012-11-16T11:05:42Z</time>
      </trkpt>
      <trkpt lat="43.34358" lon="-0.57058">
        <ele>233.737671</ele>
        <time>2012-11-16T11:05:43Z</time>
      </trkpt>
      <trkpt lat="43.34395" lon="-0.57104">
        <ele>232.776489</ele>
        <time>2012-11-16T11:05:56Z</time>
      </trkpt>
      <trkpt lat="43.34402" lon="-0.57108">
        <ele>232.295776</ele>
        <time>2012-11-16T11:05:58Z</time>
      </trkpt>
      <trkpt lat="43.34411" lon="-0.57111">
        <ele>232.295776</ele>
        <time>2012-11-16T11:06:00Z</time>
      </trkpt>
      <trkpt lat="43.3444" lon="-0.5711">
        <ele>230.85376</ele>
        <time>2012-11-16T11:06:05Z</time>
      </trkpt>
      <trkpt lat="43.34473" lon="-0.57119">
        <ele>226.527832</ele>
        <time>2012-11-16T11:06:11Z</time>
      </trkpt>
      <trkpt lat="43.34493" lon="-0.57125">
        <ele>223.643799</ele>
        <time>2012-11-16T11:06:15Z</time>
      </trkpt>
      <trkpt lat="43.34512" lon="-0.57137">
        <ele>221.721191</ele>
        <time>2012-11-16T11:06:19Z</time>
      </trkpt>
      <trkpt lat="43.34525" lon="-0.57144">
        <ele>219.317993</ele>
        <time>2012-11-16T11:06:22Z</time>
      </trkpt>
      <trkpt lat="43.34531" lon="-0.57149">
        <ele>217.875977</ele>
        <time>2012-11-16T11:06:24Z</time>
      </trkpt>
      <trkpt lat="43.34541" lon="-0.57159">
        <ele>214.51123</ele>
        <time>2012-11-16T11:06:28Z</time>
      </trkpt>
      <trkpt lat="43.34545" lon="-0.57162">
        <ele>213.550049</ele>
        <time>2012-11-16T11:06:30Z</time>
      </trkpt>
      <trkpt lat="43.34565" lon="-0.57159">
        <ele>211.146729</ele>
        <time>2012-11-16T11:06:36Z</time>
      </trkpt>
      <trkpt lat="43.3459" lon="-0.57177">
        <ele>207.301392</ele>
        <time>2012-11-16T11:06:41Z</time>
      </trkpt>
      <trkpt lat="43.34615" lon="-0.57198">
        <ele>204.898071</ele>
        <time>2012-11-16T11:06:45Z</time>
      </trkpt>
      <trkpt lat="43.34638" lon="-0.57217">
        <ele>203.456177</ele>
        <time>2012-11-16T11:06:49Z</time>
      </trkpt>
      <trkpt lat="43.34655" lon="-0.57235">
        <ele>202.975464</ele>
        <time>2012-11-16T11:06:53Z</time>
      </trkpt>
      <trkpt lat="43.34672" lon="-0.57258">
        <ele>201.052856</ele>
        <time>2012-11-16T11:06:58Z</time>
      </trkpt>
      <trkpt lat="43.34677" lon="-0.57263">
        <ele>201.052856</ele>
        <time>2012-11-16T11:06:59Z</time>
      </trkpt>
      <trkpt lat="43.34686" lon="-0.57276">
        <ele>199.130127</ele>
        <time>2012-11-16T11:07:02Z</time>
      </trkpt>
      <trkpt lat="43.34732" lon="-0.57317">
        <ele>197.688232</ele>
        <time>2012-11-16T11:07:15Z</time>
      </trkpt>
      <trkpt lat="43.34756" lon="-0.57341">
        <ele>196.726929</ele>
        <time>2012-11-16T11:07:23Z</time>
      </trkpt>
      <trkpt lat="43.3476" lon="-0.57342">
        <ele>195.765625</ele>
        <time>2012-11-16T11:07:25Z</time>
      </trkpt>
      <trkpt lat="43.34764" lon="-0.57337">
        <ele>194.804321</ele>
        <time>2012-11-16T11:07:27Z</time>
      </trkpt>
      <trkpt lat="43.34774" lon="-0.57329">
        <ele>193.362305</ele>
        <time>2012-11-16T11:07:31Z</time>
      </trkpt>
      <trkpt lat="43.34792" lon="-0.57321">
        <ele>189.516968</ele>
        <time>2012-11-16T11:07:37Z</time>
      </trkpt>
      <trkpt lat="43.34801" lon="-0.57317">
        <ele>187.59436</ele>
        <time>2012-11-16T11:07:40Z</time>
      </trkpt>
      <trkpt lat="43.34814" lon="-0.57299">
        <ele>183.268433</ele>
        <time>2012-11-16T11:07:48Z</time>
      </trkpt>
      <trkpt lat="43.34816" lon="-0.57298">
        <ele>183.268433</ele>
        <time>2012-11-16T11:07:49Z</time>
      </trkpt>
      <trkpt lat="43.34831" lon="-0.57298">
        <ele>181.345825</ele>
        <time>2012-11-16T11:07:54Z</time>
      </trkpt>
      <trkpt lat="43.34857" lon="-0.57291">
        <ele>177.981201</ele>
        <time>2012-11-16T11:08:01Z</time>
      </trkpt>
      <trkpt lat="43.34883" lon="-0.5728">
        <ele>175.577881</ele>
        <time>2012-11-16T11:08:09Z</time>
      </trkpt>
      <trkpt lat="43.34884" lon="-0.5727">
        <ele>176.058594</ele>
        <time>2012-11-16T11:08:13Z</time>
      </trkpt>
      <trkpt lat="43.34885" lon="-0.57262">
        <ele>175.577881</ele>
        <time>2012-11-16T11:08:16Z</time>
      </trkpt>
      <trkpt lat="43.34893" lon="-0.57223">
        <ele>173.655273</ele>
        <time>2012-11-16T11:08:25Z</time>
      </trkpt>
      <trkpt lat="43.34895" lon="-0.57215">
        <ele>172.213257</ele>
        <time>2012-11-16T11:08:27Z</time>
      </trkpt>
      <trkpt lat="43.34904" lon="-0.5718">
        <ele>168.368042</ele>
        <time>2012-11-16T11:08:36Z</time>
      </trkpt>
      <trkpt lat="43.34911" lon="-0.57164">
        <ele>165.003418</ele>
        <time>2012-11-16T11:08:40Z</time>
      </trkpt>
      <trkpt lat="43.34915" lon="-0.57155">
        <ele>164.522705</ele>
        <time>2012-11-16T11:08:42Z</time>
      </trkpt>
      <trkpt lat="43.34917" lon="-0.5715">
        <ele>163.080811</ele>
        <time>2012-11-16T11:08:43Z</time>
      </trkpt>
      <trkpt lat="43.34925" lon="-0.57134">
        <ele>160.67749</ele>
        <time>2012-11-16T11:08:46Z</time>
      </trkpt>
      <trkpt lat="43.34931" lon="-0.57113">
        <ele>156.351563</ele>
        <time>2012-11-16T11:08:50Z</time>
      </trkpt>
      <trkpt lat="43.34933" lon="-0.57108">
        <ele>155.870972</ele>
        <time>2012-11-16T11:08:51Z</time>
      </trkpt>
      <trkpt lat="43.34941" lon="-0.57093">
        <ele>151.544922</ele>
        <time>2012-11-16T11:08:55Z</time>
      </trkpt>
      <trkpt lat="43.34946" lon="-0.57069">
        <ele>149.141602</ele>
        <time>2012-11-16T11:09:00Z</time>
      </trkpt>
      <trkpt lat="43.34957" lon="-0.57028">
        <ele>145.7771</ele>
        <time>2012-11-16T11:09:09Z</time>
      </trkpt>
      <trkpt lat="43.34961" lon="-0.57022">
        <ele>144.335205</ele>
        <time>2012-11-16T11:09:11Z</time>
      </trkpt>
      <trkpt lat="43.34975" lon="-0.5701">
        <ele>141.45105</ele>
        <time>2012-11-16T11:09:15Z</time>
      </trkpt>
      <trkpt lat="43.34979" lon="-0.57006">
        <ele>140.970459</ele>
        <time>2012-11-16T11:09:16Z</time>
      </trkpt>
      <trkpt lat="43.34983" lon="-0.57">
        <ele>139.528442</ele>
        <time>2012-11-16T11:09:18Z</time>
      </trkpt>
      <trkpt lat="43.3499" lon="-0.56983">
        <ele>137.125244</ele>
        <time>2012-11-16T11:09:22Z</time>
      </trkpt>
      <trkpt lat="43.34993" lon="-0.56972">
        <ele>136.16394</ele>
        <time>2012-11-16T11:09:24Z</time>
      </trkpt>
      <trkpt lat="43.34992" lon="-0.56939">
        <ele>132.799316</ele>
        <time>2012-11-16T11:09:29Z</time>
      </trkpt>
      <trkpt lat="43.34991" lon="-0.56933">
        <ele>132.799316</ele>
        <time>2012-11-16T11:09:30Z</time>
      </trkpt>
      <trkpt lat="43.34986" lon="-0.56918">
        <ele>130.395996</ele>
        <time>2012-11-16T11:09:33Z</time>
      </trkpt>
      <trkpt lat="43.34977" lon="-0.56909">
        <ele>128.954102</ele>
        <time>2012-11-16T11:09:36Z</time>
      </trkpt>
      <trkpt lat="43.3496" lon="-0.56909">
        <ele>127.511963</ele>
        <time>2012-11-16T11:09:41Z</time>
      </trkpt>
      <trkpt lat="43.34959" lon="-0.56899">
        <ele>125.589355</ele>
        <time>2012-11-16T11:09:46Z</time>
      </trkpt>
      <trkpt lat="43.34971" lon="-0.56889">
        <ele>124.147339</ele>
        <time>2012-11-16T11:09:50Z</time>
      </trkpt>
      <trkpt lat="43.34998" lon="-0.56875">
        <ele>122.224731</ele>
        <time>2012-11-16T11:10:04Z</time>
      </trkpt>
      <trkpt lat="43.35033" lon="-0.56894">
        <ele>121.744141</ele>
        <time>2012-11-16T11:10:17Z</time>
      </trkpt>
      <trkpt lat="43.35062" lon="-0.56906">
        <ele>120.302124</ele>
        <time>2012-11-16T11:10:31Z</time>
      </trkpt>
      <trkpt lat="43.35069" lon="-0.56908">
        <ele>120.782837</ele>
        <time>2012-11-16T11:10:42Z</time>
      </trkpt>
      <trkpt lat="43.35079" lon="-0.56914">
        <ele>121.26355</ele>
        <time>2012-11-16T11:10:49Z</time>
      </trkpt>
      <trkpt lat="43.35083" lon="-0.56914">
        <ele>120.782837</ele>
        <time>2012-11-16T11:10:52Z</time>
      </trkpt>
      <trkpt lat="43.35091" lon="-0.56923">
        <ele>120.302124</ele>
        <time>2012-11-16T11:10:59Z</time>
      </trkpt>
      <trkpt lat="43.3511" lon="-0.56956">
        <ele>120.782837</ele>
        <time>2012-11-16T11:11:14Z</time>
      </trkpt>
      <trkpt lat="43.3514" lon="-0.57006">
        <ele>120.782837</ele>
        <time>2012-11-16T11:11:30Z</time>
      </trkpt>
      <trkpt lat="43.35162" lon="-0.57036">
        <ele>120.782837</ele>
        <time>2012-11-16T11:11:42Z</time>
      </trkpt>
      <trkpt lat="43.35196" lon="-0.57043">
        <ele>120.782837</ele>
        <time>2012-11-16T11:11:54Z</time>
      </trkpt>
      <trkpt lat="43.35228" lon="-0.57032">
        <ele>122.705444</ele>
        <time>2012-11-16T11:12:06Z</time>
      </trkpt>
      <trkpt lat="43.35275" lon="-0.57003">
        <ele>121.744141</ele>
        <time>2012-11-16T11:12:19Z</time>
      </trkpt>
      <trkpt lat="43.35351" lon="-0.56963">
        <ele>121.26355</ele>
        <time>2012-11-16T11:12:38Z</time>
      </trkpt>
      <trkpt lat="43.35382" lon="-0.56945">
        <ele>121.26355</ele>
        <time>2012-11-16T11:12:45Z</time>
      </trkpt>
      <trkpt lat="43.354" lon="-0.56932">
        <ele>121.26355</ele>
        <time>2012-11-16T11:12:49Z</time>
      </trkpt>
      <trkpt lat="43.35496" lon="-0.56871">
        <ele>120.782837</ele>
        <time>2012-11-16T11:13:10Z</time>
      </trkpt>
      <trkpt lat="43.35516" lon="-0.56853">
        <ele>120.782837</ele>
        <time>2012-11-16T11:13:15Z</time>
      </trkpt>
      <trkpt lat="43.35527" lon="-0.56831">
        <ele>120.782837</ele>
        <time>2012-11-16T11:13:20Z</time>
      </trkpt>
      <trkpt lat="43.35525" lon="-0.56833">
        <ele>120.782837</ele>
        <time>2012-11-16T11:13:26Z</time>
      </trkpt>
      <trkpt lat="43.35529" lon="-0.56849">
        <ele>121.744141</ele>
        <time>2012-11-16T11:13:30Z</time>
      </trkpt>
      <trkpt lat="43.35549" lon="-0.56853">
        <ele>121.744141</ele>
        <time>2012-11-16T11:13:36Z</time>
      </trkpt>
      <trkpt lat="43.35624" lon="-0.56804">
        <ele>120.782837</ele>
        <time>2012-11-16T11:13:54Z</time>
      </trkpt>
      <trkpt lat="43.35698" lon="-0.56753">
        <ele>120.782837</ele>
        <time>2012-11-16T11:14:13Z</time>
      </trkpt>
      <trkpt lat="43.35725" lon="-0.5673">
        <ele>121.26355</ele>
        <time>2012-11-16T11:14:21Z</time>
      </trkpt>
      <trkpt lat="43.35724" lon="-0.56696">
        <ele>121.744141</ele>
        <time>2012-11-16T11:14:27Z</time>
      </trkpt>
      <trkpt lat="43.35694" lon="-0.56607">
        <ele>122.224731</ele>
        <time>2012-11-16T11:14:42Z</time>
      </trkpt>
      <trkpt lat="43.35693" lon="-0.56575">
        <ele>122.224731</ele>
        <time>2012-11-16T11:14:47Z</time>
      </trkpt>
      <trkpt lat="43.35698" lon="-0.56559">
        <ele>122.705444</ele>
        <time>2012-11-16T11:14:50Z</time>
      </trkpt>
      <trkpt lat="43.35693" lon="-0.56501">
        <ele>122.224731</ele>
        <time>2012-11-16T11:14:59Z</time>
      </trkpt>
      <trkpt lat="43.35685" lon="-0.56464">
        <ele>122.224731</ele>
        <time>2012-11-16T11:15:05Z</time>
      </trkpt>
      <trkpt lat="43.35679" lon="-0.56418">
        <ele>122.705444</ele>
        <time>2012-11-16T11:15:12Z</time>
      </trkpt>
      <trkpt lat="43.35671" lon="-0.56338">
        <ele>123.186157</ele>
        <time>2012-11-16T11:15:26Z</time>
      </trkpt>
      <trkpt lat="43.35681" lon="-0.56304">
        <ele>123.186157</ele>
        <time>2012-11-16T11:15:32Z</time>
      </trkpt>
      <trkpt lat="43.35748" lon="-0.56238">
        <ele>122.705444</ele>
        <time>2012-11-16T11:15:51Z</time>
      </trkpt>
      <trkpt lat="43.35749" lon="-0.56223">
        <ele>122.705444</ele>
        <time>2012-11-16T11:15:54Z</time>
      </trkpt>
      <trkpt lat="43.3574" lon="-0.56204">
        <ele>122.705444</ele>
        <time>2012-11-16T11:15:58Z</time>
      </trkpt>
      <trkpt lat="43.35737" lon="-0.56177">
        <ele>122.224731</ele>
        <time>2012-11-16T11:16:03Z</time>
      </trkpt>
      <trkpt lat="43.35745" lon="-0.56144">
        <ele>122.224731</ele>
        <time>2012-11-16T11:16:09Z</time>
      </trkpt>
      <trkpt lat="43.35741" lon="-0.56115">
        <ele>123.186157</ele>
        <time>2012-11-16T11:16:14Z</time>
      </trkpt>
      <trkpt lat="43.35728" lon="-0.56083">
        <ele>123.186157</ele>
        <time>2012-11-16T11:16:20Z</time>
      </trkpt>
      <trkpt lat="43.35687" lon="-0.56035">
        <ele>125.108765</ele>
        <time>2012-11-16T11:16:33Z</time>
      </trkpt>
      <trkpt lat="43.35629" lon="-0.56009">
        <ele>124.147339</ele>
        <time>2012-11-16T11:16:47Z</time>
      </trkpt>
      <trkpt lat="43.3559" lon="-0.55923">
        <ele>124.147339</ele>
        <time>2012-11-16T11:17:03Z</time>
      </trkpt>
      <trkpt lat="43.3557" lon="-0.55846">
        <ele>124.628052</ele>
        <time>2012-11-16T11:17:16Z</time>
      </trkpt>
      <trkpt lat="43.35506" lon="-0.55742">
        <ele>125.108765</ele>
        <time>2012-11-16T11:17:38Z</time>
      </trkpt>
      <trkpt lat="43.35471" lon="-0.55686">
        <ele>128.473389</ele>
        <time>2012-11-16T11:17:51Z</time>
      </trkpt>
      <trkpt lat="43.35469" lon="-0.55682">
        <ele>128.473389</ele>
        <time>2012-11-16T11:17:52Z</time>
      </trkpt>
      <trkpt lat="43.35441" lon="-0.55642">
        <ele>127.992554</ele>
        <time>2012-11-16T11:18:01Z</time>
      </trkpt>
      <trkpt lat="43.35421" lon="-0.55578">
        <ele>127.511963</ele>
        <time>2012-11-16T11:18:11Z</time>
      </trkpt>
      <trkpt lat="43.35414" lon="-0.55561">
        <ele>127.992554</ele>
        <time>2012-11-16T11:18:14Z</time>
      </trkpt>
      <trkpt lat="43.35389" lon="-0.55532">
        <ele>127.992554</ele>
        <time>2012-11-16T11:18:21Z</time>
      </trkpt>
      <trkpt lat="43.35368" lon="-0.55521">
        <ele>127.031372</ele>
        <time>2012-11-16T11:18:25Z</time>
      </trkpt>
      <trkpt lat="43.35349" lon="-0.55517">
        <ele>125.589355</ele>
        <time>2012-11-16T11:18:28Z</time>
      </trkpt>
      <trkpt lat="43.3533" lon="-0.55507">
        <ele>125.108765</ele>
        <time>2012-11-16T11:18:31Z</time>
      </trkpt>
      <trkpt lat="43.35315" lon="-0.55493">
        <ele>124.628052</ele>
        <time>2012-11-16T11:18:34Z</time>
      </trkpt>
      <trkpt lat="43.35261" lon="-0.55406">
        <ele>125.589355</ele>
        <time>2012-11-16T11:18:50Z</time>
      </trkpt>
      <trkpt lat="43.35227" lon="-0.55345">
        <ele>124.628052</ele>
        <time>2012-11-16T11:19:01Z</time>
      </trkpt>
      <trkpt lat="43.35222" lon="-0.5532">
        <ele>125.589355</ele>
        <time>2012-11-16T11:19:05Z</time>
      </trkpt>
      <trkpt lat="43.35218" lon="-0.55236">
        <ele>127.992554</ele>
        <time>2012-11-16T11:19:21Z</time>
      </trkpt>
      <trkpt lat="43.35186" lon="-0.55178">
        <ele>128.954102</ele>
        <time>2012-11-16T11:19:35Z</time>
      </trkpt>
      <trkpt lat="43.35165" lon="-0.5514">
        <ele>129.434692</ele>
        <time>2012-11-16T11:19:45Z</time>
      </trkpt>
      <trkpt lat="43.35104" lon="-0.55107">
        <ele>129.434692</ele>
        <time>2012-11-16T11:20:01Z</time>
      </trkpt>
      <trkpt lat="43.3504" lon="-0.55072">
        <ele>128.473389</ele>
        <time>2012-11-16T11:20:16Z</time>
      </trkpt>
      <trkpt lat="43.3501" lon="-0.55039">
        <ele>128.473389</ele>
        <time>2012-11-16T11:20:24Z</time>
      </trkpt>
      <trkpt lat="43.34956" lon="-0.54948">
        <ele>128.954102</ele>
        <time>2012-11-16T11:20:42Z</time>
      </trkpt>
      <trkpt lat="43.34924" lon="-0.54912">
        <ele>131.3573</ele>
        <time>2012-11-16T11:20:54Z</time>
      </trkpt>
      <trkpt lat="43.34896" lon="-0.54898">
        <ele>131.3573</ele>
        <time>2012-11-16T11:21:01Z</time>
      </trkpt>
      <trkpt lat="43.3485" lon="-0.5489">
        <ele>130.876709</ele>
        <time>2012-11-16T11:21:11Z</time>
      </trkpt>
      <trkpt lat="43.34825" lon="-0.54853">
        <ele>129.434692</ele>
        <time>2012-11-16T11:21:19Z</time>
      </trkpt>
      <trkpt lat="43.34779" lon="-0.54794">
        <ele>130.876709</ele>
        <time>2012-11-16T11:21:34Z</time>
      </trkpt>
      <trkpt lat="43.34752" lon="-0.54758">
        <ele>133.760498</ele>
        <time>2012-11-16T11:21:47Z</time>
      </trkpt>
      <trkpt lat="43.34695" lon="-0.54709">
        <ele>134.241211</ele>
        <time>2012-11-16T11:22:04Z</time>
      </trkpt>
      <trkpt lat="43.34683" lon="-0.54697">
        <ele>133.760498</ele>
        <time>2012-11-16T11:22:07Z</time>
      </trkpt>
      <trkpt lat="43.34663" lon="-0.54682">
        <ele>135.202515</ele>
        <time>2012-11-16T11:22:12Z</time>
      </trkpt>
      <trkpt lat="43.3464" lon="-0.54672">
        <ele>135.202515</ele>
        <time>2012-11-16T11:22:20Z</time>
      </trkpt>
      <trkpt lat="43.34625" lon="-0.54669">
        <ele>134.721924</ele>
        <time>2012-11-16T11:22:23Z</time>
      </trkpt>
      <trkpt lat="43.34598" lon="-0.54628">
        <ele>132.318604</ele>
        <time>2012-11-16T11:22:30Z</time>
      </trkpt>
      <trkpt lat="43.34586" lon="-0.54574">
        <ele>131.3573</ele>
        <time>2012-11-16T11:22:37Z</time>
      </trkpt>
      <trkpt lat="43.3455" lon="-0.54552">
        <ele>131.3573</ele>
        <time>2012-11-16T11:22:46Z</time>
      </trkpt>
      <trkpt lat="43.34541" lon="-0.54554">
        <ele>131.3573</ele>
        <time>2012-11-16T11:22:48Z</time>
      </trkpt>
      <trkpt lat="43.34517" lon="-0.54551">
        <ele>131.3573</ele>
        <time>2012-11-16T11:22:53Z</time>
      </trkpt>
      <trkpt lat="43.34488" lon="-0.54532">
        <ele>129.915283</ele>
        <time>2012-11-16T11:22:59Z</time>
      </trkpt>
      <trkpt lat="43.34442" lon="-0.54509">
        <ele>129.434692</ele>
        <time>2012-11-16T11:23:08Z</time>
      </trkpt>
      <trkpt lat="43.34406" lon="-0.54501">
        <ele>128.954102</ele>
        <time>2012-11-16T11:23:15Z</time>
      </trkpt>
      <trkpt lat="43.34386" lon="-0.54489">
        <ele>128.473389</ele>
        <time>2012-11-16T11:23:19Z</time>
      </trkpt>
      <trkpt lat="43.34346" lon="-0.54446">
        <ele>127.511963</ele>
        <time>2012-11-16T11:23:28Z</time>
      </trkpt>
      <trkpt lat="43.34327" lon="-0.5442">
        <ele>127.992554</ele>
        <time>2012-11-16T11:23:33Z</time>
      </trkpt>
      <trkpt lat="43.34294" lon="-0.54321">
        <ele>129.915283</ele>
        <time>2012-11-16T11:23:49Z</time>
      </trkpt>
      <trkpt lat="43.34289" lon="-0.54309">
        <ele>129.434692</ele>
        <time>2012-11-16T11:23:51Z</time>
      </trkpt>
      <trkpt lat="43.34257" lon="-0.54258">
        <ele>128.473389</ele>
        <time>2012-11-16T11:24:00Z</time>
      </trkpt>
      <trkpt lat="43.3423" lon="-0.54231">
        <ele>127.031372</ele>
        <time>2012-11-16T11:24:06Z</time>
      </trkpt>
      <trkpt lat="43.34158" lon="-0.54186">
        <ele>127.511963</ele>
        <time>2012-11-16T11:24:21Z</time>
      </trkpt>
      <trkpt lat="43.3412" lon="-0.54148">
        <ele>130.876709</ele>
        <time>2012-11-16T11:24:34Z</time>
      </trkpt>
      <trkpt lat="43.34085" lon="-0.54098">
        <ele>132.318604</ele>
        <time>2012-11-16T11:24:48Z</time>
      </trkpt>
      <trkpt lat="43.34037" lon="-0.54025">
        <ele>133.760498</ele>
        <time>2012-11-16T11:25:05Z</time>
      </trkpt>
      <trkpt lat="43.33974" lon="-0.53966">
        <ele>131.3573</ele>
        <time>2012-11-16T11:25:20Z</time>
      </trkpt>
      <trkpt lat="43.33889" lon="-0.53908">
        <ele>129.915283</ele>
        <time>2012-11-16T11:25:37Z</time>
      </trkpt>
      <trkpt lat="43.33868" lon="-0.53899">
        <ele>129.434692</ele>
        <time>2012-11-16T11:25:41Z</time>
      </trkpt>
      <trkpt lat="43.33842" lon="-0.53879">
        <ele>130.395996</ele>
        <time>2012-11-16T11:25:47Z</time>
      </trkpt>
      <trkpt lat="43.33803" lon="-0.53826">
        <ele>130.876709</ele>
        <time>2012-11-16T11:25:59Z</time>
      </trkpt>
      <trkpt lat="43.33791" lon="-0.53804">
        <ele>131.837891</ele>
        <time>2012-11-16T11:26:03Z</time>
      </trkpt>
      <trkpt lat="43.33738" lon="-0.53723">
        <ele>129.915283</ele>
        <time>2012-11-16T11:26:17Z</time>
      </trkpt>
      <trkpt lat="43.33678" lon="-0.53633">
        <ele>131.3573</ele>
        <time>2012-11-16T11:26:34Z</time>
      </trkpt>
      <trkpt lat="43.33655" lon="-0.5359">
        <ele>131.3573</ele>
        <time>2012-11-16T11:26:42Z</time>
      </trkpt>
      <trkpt lat="43.33598" lon="-0.53529">
        <ele>130.395996</ele>
        <time>2012-11-16T11:26:56Z</time>
      </trkpt>
      <trkpt lat="43.33584" lon="-0.53522">
        <ele>130.395996</ele>
        <time>2012-11-16T11:26:59Z</time>
      </trkpt>
      <trkpt lat="43.3351" lon="-0.53502">
        <ele>130.876709</ele>
        <time>2012-11-16T11:27:14Z</time>
      </trkpt>
      <trkpt lat="43.33437" lon="-0.53474">
        <ele>131.3573</ele>
        <time>2012-11-16T11:27:29Z</time>
      </trkpt>
      <trkpt lat="43.33385" lon="-0.53435">
        <ele>133.760498</ele>
        <time>2012-11-16T11:27:43Z</time>
      </trkpt>
      <trkpt lat="43.3336" lon="-0.53384">
        <ele>134.241211</ele>
        <time>2012-11-16T11:27:55Z</time>
      </trkpt>
    </trkseg>
  </trk>
</gpx>